Location: Newark
(22.3060°N, 114.2134°E)
Time: 02:08:30
(UTC+00:00)

Vanguard 2 - Pass Details

Date: 06 August 2021
Orbit: 553 x 2937 km, 32.9° (Epoch: 27 September)

Event Time Altitude Azimuth Distance (km) Brightness Sun altitude
Rises 19:46:17 0° 279° (W) 2,967 - -28.1°
Reaches altitude 10° 19:49:09 10° 295° (WNW) 1,904 - -27.5°
Maximum altitude 19:52:27 23° 349° (N) 1,208 - -26.9°
Exits shadow 19:52:31 23° 350° (N) 1,208 8.7 -26.9°
Drops below altitude 10° 19:55:40 10° 43° (NE) 1,847 10.4 -26.3°
Sets 19:58:24 0° 59° (ENE) 2,852 11.8 -25.8°
